Waarnemingen

Advertentie
Mijn weer
Abbeville, Frankrijk (7005): temperatuur & dauwpunt: 16.05.2019 19:00:00 - 22.05.2019 19:00:00 (CEST)Abbeville, Frankrijk (7005): temperatuur 5cm: 16.05.2019 19:00:00 - 22.05.2019 19:00:00 (CEST)Abbeville, Frankrijk (7005): temperatuur -20cm & temperatuur -100cm: 16.05.2019 19:00:00 - 22.05.2019 19:00:00 (CEST)Abbeville, Frankrijk (7005): windsnelheid & windstoten: 16.05.2019 19:00:00 - 22.05.2019 19:00:00 (CEST)Abbeville, Frankrijk (7005): windrichting: 16.05.2019 19:00:00 - 22.05.2019 19:00:00 (CEST)Abbeville, Frankrijk (7005): luchtdruk: 16.05.2019 19:00:00 - 22.05.2019 19:00:00 (CEST)Abbeville, Frankrijk (7005): zicht: 16.05.2019 19:00:00 - 22.05.2019 19:00:00 (CEST)Abbeville, Frankrijk (7005): Zonneschijnduur: 16.05.2019 19:00:00 - 22.05.2019 19:00:00 (CEST)Abbeville, Frankrijk (7005): neerslag: 16.05.2019 19:00:00 - 22.05.2019 19:00:00 (CEST)
Datum & Tijd tt [°C] td [°C] tt 5cm [°C] tt -20cm [°C] tt -100cm [°C] ff [km/u] ff [kn] fx [km/u] fx [kn] dd ppp [hPa] vv [km] sd [min] rr [mm]
22.05.2019 19:00:00 17,3 9,7 19,3 16,4 11,8 14 8 18 10 WNW 1020,2 20 39 0,0
22.05.2019 18:00:00 17,9 10,5 20,3 16,1 11,8 13 7 20 11 WNW 1020,2 20 18 0,0
22.05.2019 17:00:00 18,5 8,5 21,7 15,8 11,8 13 7 21 12 WNW 1020,5 20 38 0,0
22.05.2019 16:00:00 18,5 8,7 21,7 15,4 11,8 14 8 24 13 WNW 1020,7 20 6 0,0
22.05.2019 15:00:00 18,2 8,7 21,6 15,0 11,8 17 9 25 13 WNW 1020,9 20 32 0,0
22.05.2019 14:00:00 17,5 9,6 20,8 14,6 11,8 15 8 24 13 W 1021,2 20 44 0,0
22.05.2019 13:00:00 16,9 10,3 19,9 14,2 11,8 14 7 22 12 W 1021,2 20 0 0,0
22.05.2019 12:00:00 16,7 10,1 20,0 13,9 11,8 11 6 18 10 W 1021,1 19 26 0,0
22.05.2019 11:00:00 15,4 10,4 16,5 13,8 11,8 6 3 16 8 W 1020,9 20 19 0,0
22.05.2019 10:00:00 14,1 9,3 15,3 13,7 11,8 9 5 14 8 W 1020,9 20 33 0,0
22.05.2019 09:00:00 12,8 8,9 14,3 13,8 11,8 5 3 8 4 WZW 1020,6 20 58 0,0
22.05.2019 08:00:00 10,9 8,6 9,7 14,0 11,8 4 2 8 4 ZO 1020,3 13 51 0,0
22.05.2019 07:00:00 8,4 7,0 6,1 14,3 11,8 6 3 8 4 OZO 1020,2 7 35 0,0
22.05.2019 06:00:00 7,6 6,4 5,3 14,6 11,8 3 2 6 4 ZO 1020,3 5 0 0,0
22.05.2019 05:00:00 8,2 6,8 6,0 14,9 11,8 4 2 6 3 ZO 1020,1 7 0 0,0
22.05.2019 04:00:00 8,6 6,9 5,7 15,2 11,8 3 1 5 3 ZZO 1020,3 7 0 0,0
22.05.2019 03:00:00 8,9 7,2 6,8 15,5 11,7 3 2 7 4 ZO 1020,2 7 0 0,0
22.05.2019 02:00:00 9,6 7,9 7,0 15,9 11,7 3 2 8 5 ZZO 1020,2 10 0 0,0
22.05.2019 01:00:00 9,9 8,2 7,7 16,2 11,8 7 4 10 5 ZW 1020,1 9 0 0,0
22.05.2019 00:00:00 10,7 9,0 8,6 16,5 11,7 6 3 12 6 ZZW 1020,2 3,5 0 0,0
21.05.2019 23:00:00 11,5 9,6 9,8 16,8 11,7 8 4 13 7 W 1020,2 6 0 0,0
21.05.2019 22:00:00 12,5 9,9 11,0 16,9 11,7 10 5 20 11 WNW 1019,9 7 12 0,0
21.05.2019 21:00:00 14,8 9,6 14,8 17,0 11,7 14 8 22 12 NW 1019,5 14 60 0,0
21.05.2019 20:00:00 16,9 9,1 18,4 16,9 11,7 16 9 27 14 W 1019,0 20 60 0,0
21.05.2019 19:00:00 18,1 8,9 21,5 16,8 11,7 17 9 29 15 NW 1018,5 20 60 0,0
21.05.2019 18:00:00 18,8 9,3 22,6 16,4 11,7 19 10 30 16 WNW 1018,4 20 60 0,0
21.05.2019 17:00:00 19,0 8,9 23,4 16,0 11,7 22 12 35 19 WNW 1018,2 20 60 0,0
21.05.2019 16:00:00 19,3 9,2 24,0 15,4 11,7 23 12 37 20 WNW 1018,2 20 60 0,0
21.05.2019 15:00:00 19,5 8,5 22,1 14,9 11,7 21 11 40 22 WNW 1018,0 20 54 0,0
21.05.2019 14:00:00 19,6 9,8 21,8 14,4 11,7 23 12 36 20 WNW 1017,7 20 56 0,0
21.05.2019 13:00:00 19,0 10,3 20,1 13,8 11,7 17 9 33 18 WNW 1017,6 20 43 0,0
21.05.2019 12:00:00 18,5 10,3 23,4 13,5 11,7 12 6 24 13 NW 1017,4 18 60 0,0
21.05.2019 11:00:00 17,4 11,0 22,1 13,2 11,7 10 5 22 12 NNW 1017,5 18 57 0,0
21.05.2019 10:00:00 16,0 11,6 17,7 13,1 11,7 12 7 18 10 NNW 1017,2 11 60 0,0
21.05.2019 09:00:00 13,5 12,6 13,8 13,2 11,7 11 6 16 8 W 1016,7 4,5 60 0,0
21.05.2019 08:00:00 11,2 10,6 8,8 13,4 11,7 9 5 13 7 W 1016,6 2,5 19 0,0
21.05.2019 07:00:00 9,3 8,7 7,0 13,6 11,7 4 2 6 3 ZW 1016,1 1,3 0 0,2
21.05.2019 06:00:00 9,5 8,7 7,3 13,8 11,7 5 3 9 5 ZW 1015,5 0,9 0 0,0
21.05.2019 05:00:00 9,8 9,0 8,2 14,0 11,7 5 3 12 6 W 1015,6 1,5 0 0,0
21.05.2019 04:00:00 10,0 9,1 8,9 14,2 11,7 9 5 16 9 W 1015,5 1,9 0 0,0
21.05.2019 03:00:00 10,4 9,3 8,9 14,5 11,7 12 6 18 10 W 1015,2 2,8 0 0,0
21.05.2019 02:00:00 10,4 9,2 9,0 14,7 11,7 11 6 14 7 W 1015,4 3,5 0 0,0
21.05.2019 01:00:00 10,4 8,5 9,3 15,0 11,6 10 5 14 8 W 1015,4 6 0 0,0
21.05.2019 00:00:00 10,6 8,7 9,4 15,3 11,7 10 6 14 7 W 1015,4 7 0 0,0
20.05.2019 23:00:00 10,9 8,8 9,7 15,5 11,6 10 6 15 8 W 1015,2 8 0 0,0
20.05.2019 22:00:00 12,0 9,0 10,9 15,7 11,6 9 5 26 14 WNW 1014,5 10 10 0,0
20.05.2019 21:00:00 13,9 8,1 13,8 15,7 11,6 16 9 28 15 WNW 1013,9 20 60 0,0
20.05.2019 20:00:00 15,2 10,0 16,5 15,7 11,6 21 11 34 18 WNW 1013,4 15 56 0,0
20.05.2019 19:00:00 15,8 10,5 17,5 15,5 11,6 21 11 36 19 WNW 1012,9 13 44 0,0
20.05.2019 18:00:00 18,1 8,6 19,7 15,2 11,6 21 11 35 19 NNW 1012,7 20 50 0,0
20.05.2019 17:00:00 18,2 9,0 20,6 14,9 11,6 21 11 33 18 N 1012,7 20 44 0,0
20.05.2019 16:00:00 17,9 11,2 20,1 14,6 11,6 22 12 34 18 NW 1012,5 17 26 0,0
20.05.2019 15:00:00 16,5 11,2 18,8 14,3 11,6 18 10 31 17 WNW 1012,4 15 9 0,0
20.05.2019 14:00:00 15,9 11,1 18,5 13,9 11,6 23 12 37 20 W 1011,8 13 22 0,0
20.05.2019 13:00:00 16,4 11,5 18,5 13,6 11,6 21 11 35 19 WNW 1011,3 14 46 0,0
20.05.2019 12:00:00 15,4 11,0 18,0 13,4 11,6 18 10 29 16 NW 1011,2 19 27 0,0
20.05.2019 11:00:00 14,6 10,8 15,4 13,3 11,6 18 10 25 14 NNW 1011,5 15 23 0,0
20.05.2019 10:00:00 13,2 11,1 13,5 13,2 11,6 16 9 23 12 NW 1011,1 12 2 0,0
20.05.2019 09:00:00 12,3 10,9 12,5 13,3 11,6 13 7 21 11 NW 1010,9 10 0 0,0
20.05.2019 08:00:00 11,8 10,7 11,4 13,3 11,6 13 7 18 10 NNW 1010,6 8 0 0,0
20.05.2019 07:00:00 11,1 10,2 10,6 13,5 11,6 10 5 15 8 NNW 1010,2 7 0 0,0
20.05.2019 06:00:00 10,9 10,0 10,5 13,6 11,6 11 6 18 10 NW 1010,0 6 0 0,0
20.05.2019 05:00:00 10,9 9,8 10,5 13,7 11,6 10 5 19 11 NW 1009,8 4,8 0 0,0
20.05.2019 04:00:00 11,1 9,8 10,4 13,8 11,6 13 7 18 10 NW 1009,7 6 0 0,0
20.05.2019 03:00:00 11,1 9,7 10,3 14,0 11,6 13 7 18 10 NW 1009,9 10 0 0,0
20.05.2019 02:00:00 11,0 9,6 10,2 14,2 11,6 11 6 19 10 NW 1010,2 12 0 0,0
20.05.2019 01:00:00 11,1 9,7 10,3 14,3 11,6 11 6 17 9 NW 1010,4 12 0 0,0
20.05.2019 00:00:00 11,2 9,8 10,5 14,5 11,6 9 5 14 8 NW 1010,5 13 0 0,0
19.05.2019 23:00:00 11,4 9,8 10,5 14,6 11,5 10 5 17 9 NW 1010,2 17 0 0,0
19.05.2019 22:00:00 11,5 9,7 10,6 14,7 11,6 9 5 16 9 NW 1010,0 17 0 0,4
19.05.2019 21:00:00 11,8 9,2 10,8 14,7 11,5 13 7 26 14 N 1009,6 14 0 0,6
19.05.2019 20:00:00 14,3 10,3 15,2 14,6 11,5 14 8 24 13 NNO 1008,8 17 46 0,0
19.05.2019 19:00:00 15,4 11,2 16,4 14,5 11,5 16 9 23 13 N 1008,5 13 19 0,0
19.05.2019 18:00:00 15,1 11,1 17,1 14,3 11,5 16 8 23 12 N 1008,7 10 9 0,0
19.05.2019 17:00:00 15,0 11,6 16,4 14,0 11,5 14 8 22 12 N 1008,7 11 0 0,0
19.05.2019 16:00:00 15,5 12,3 18,9 13,8 11,5 11 6 22 12 NNO 1008,5 13 13 0,0
19.05.2019 15:00:00 14,5 12,5 14,3 13,6 11,5 13 7 21 11 NNO 1008,5 9 0 0,2
19.05.2019 14:00:00 13,9 12,3 14,6 13,5 11,5 12 7 24 13 NNO 1008,7 8 0 0,0
19.05.2019 13:00:00 14,1 12,0 15,6 13,4 11,5 15 8 22 12 NNO 1008,4 4,1 0 0,0
19.05.2019 12:00:00 14,4 11,7 14,5 13,2 11,5 13 7 19 10 NNO 1008,3 4,6 0 0,0
19.05.2019 11:00:00 13,7 11,4 15,4 13,1 11,5 8 4 13 7 N 1008,3 4,3 0 0,0
19.05.2019 10:00:00 13,2 11,6 14,8 13,0 11,5 5 3 11 6 NNW 1007,9 4,5 0 0,0
19.05.2019 09:00:00 11,9 11,1 11,8 13,0 11,5 7 4 11 6 NNW 1007,7 3,9 8 0,0
19.05.2019 08:00:00 10,7 10,2 9,5 13,2 11,5 5 3 9 5 NW 1007,4 2,6 12 0,0
19.05.2019 07:00:00 9,5 8,9 7,7 13,4 11,5 6 3 8 5 WNW 1007,3 2,0 0 0,0
19.05.2019 06:00:00 9,0 8,4 6,8 13,6 11,5 5 3 7 4 WNW 1007,1 1,9 0 0,0
19.05.2019 05:00:00 8,5 7,7 6,3 13,8 11,5 5 3 7 4 NW 1007,0 1,3 0 0,0
19.05.2019 04:00:00 9,1 8,2 7,4 14,0 11,5 4 2 6 3 NW 1007,0 1,4 0 0,0
19.05.2019 03:00:00 9,8 8,7 8,1 14,2 11,5 5 3 9 5 NW 1007,3 1,7 0 0,0
19.05.2019 02:00:00 10,5 9,3 9,4 14,4 11,5 6 3 8 4 NNW 1007,2 1,8 0 0,0
19.05.2019 01:00:00 11,4 9,6 10,1 14,6 11,5 5 3 18 10 N 1007,4 2,9 0 0,0
19.05.2019 00:00:00 12,1 10,3 11,4 14,7 11,5 13 7 17 9 N 1007,4 3,2 0 0,0
18.05.2019 23:00:00 12,7 10,9 11,9 14,8 11,4 9 5 16 9 N 1007,5 3,0 0 0,0
18.05.2019 22:00:00 13,6 11,8 12,7 14,9 11,4 10 6 17 9 NNO 1007,2 2,9 0 2,0
18.05.2019 21:00:00 14,4 11,9 14,2 15,0 11,4 12 7 20 11 NNW 1006,5 6 0 0,0
18.05.2019 20:00:00 15,3 12,1 15,9 14,9 11,4 10 6 14 8 NNW 1006,2 9 11 0,0
18.05.2019 19:00:00 15,5 12,3 14,8 14,8 11,4 10 6 14 7 NNW 1005,8 8 0 0,0
18.05.2019 18:00:00 14,8 11,6 13,7 14,7 11,4 4 2 26 14 N 1005,8 7 0 1,0
18.05.2019 17:00:00 17,8 9,4 16,7 14,5 11,4 11 6 16 9 N 1005,4 13 7 0,0
18.05.2019 16:00:00 17,1 9,0 18,0 14,3 11,4 8 4 21 11 ONO 1005,6 14 10 0,0
18.05.2019 15:00:00 16,8 9,5 17,9 14,0 11,4 9 5 16 9 O 1005,7 11 0 0,0
18.05.2019 14:00:00 16,1 10,0 17,0 13,8 11,4 8 4 16 8 NO 1005,8 10 0 0,0
18.05.2019 13:00:00 15,0 9,6 16,2 13,6 11,4 10 6 17 9 O 1005,9 9 0 0,0
18.05.2019 12:00:00 14,8 9,2 16,4 13,4 11,4 11 6 17 9 O 1005,9 9 0 0,0
18.05.2019 11:00:00 14,4 9,4 15,3 13,4 11,4 11 6 16 9 ONO 1005,6 8 0 0,0
18.05.2019 10:00:00 13,4 9,4 14,5 13,4 11,4 10 5 14 8 NO 1005,5 6 0 0,0
18.05.2019 09:00:00 12,6 9,6 11,7 13,4 11,4 8 4 11 6 NO 1005,3 6 0 0,0
18.05.2019 08:00:00 10,9 8,8 10,1 13,6 11,4 7 4 14 8 NO 1005,2 4,4 10 0,0
18.05.2019 07:00:00 10,0 8,4 8,7 13,7 11,4 11 6 15 8 ONO 1005,0 4,1 0 0,0
18.05.2019 06:00:00 9,4 7,8 6,3 13,9 11,4 7 4 12 7 O 1005,0 3,7 0 0,0
18.05.2019 05:00:00 9,8 7,7 7,6 14,1 11,4 5 3 8 4 NO 1005,2 4,7 0 0,0
18.05.2019 04:00:00 10,8 8,4 9,4 14,3 11,3 3 2 9 5 ONO 1005,3 5 0 0,0
18.05.2019 03:00:00 11,0 8,4 10,3 14,5 11,4 4 2 8 4 ONO 1005,4 6 0 0,0
18.05.2019 02:00:00 11,4 8,4 10,6 14,6 11,3 5 3 9 5 ONO 1005,7 6 0 0,0
18.05.2019 01:00:00 11,8 8,3 11,1 14,8 11,3 7 4 10 5 ONO 1005,7 7 0 0,0
18.05.2019 00:00:00 12,2 8,3 11,4 15,0 11,3 7 4 12 7 NO 1005,7 8 0 0,0
17.05.2019 23:00:00 12,7 8,4 12,0 15,1 11,3 10 5 17 9 ONO 1005,7 8 0 0,0
17.05.2019 22:00:00 13,1 8,6 12,2 15,3 11,3 11 6 17 9 ONO 1005,7 8 0 0,0
17.05.2019 21:00:00 14,1 8,5 13,4 15,4 11,3 10 6 16 9 NO 1005,5 10 0 0,0
17.05.2019 20:00:00 14,9 8,1 14,5 15,4 11,3 11 6 18 10 NO 1005,3 12 0 0,0
17.05.2019 19:00:00 15,4 7,4 15,2 15,4 11,3 13 7 21 11 NO 1005,3 16 0 0,0
17.05.2019 18:00:00 16,6 8,0 18,1 15,2 11,3 8 5 16 9 NNO 1005,4 16 0 0,0
17.05.2019 17:00:00 16,6 7,8 18,0 14,9 11,3 6 3 19 10 ONO 1005,6 16 0 0,0
17.05.2019 16:00:00 16,6 7,2 18,2 14,5 11,3 9 5 15 8 NO 1005,7 18 10 0,0
17.05.2019 15:00:00 17,0 7,3 21,2 14,1 11,3 8 4 26 14 NNO 1005,7 18 34 0,0
17.05.2019 14:00:00 17,4 7,7 21,3 13,6 11,3 12 7 19 11 N 1005,9 19 34 0,0
17.05.2019 13:00:00 16,3 8,0 19,6 13,3 11,3 10 5 18 10 NO 1006,2 17 19 0,0
17.05.2019 12:00:00 15,3 7,6 17,9 13,0 11,3 5 3 16 9 OZO 1006,4 18 26 0,0
17.05.2019 11:00:00 14,3 8,5 14,0 12,9 11,3 9 5 17 9 NO 1006,4 15 44 0,0
17.05.2019 10:00:00 11,6 7,5 12,2 12,9 11,3 8 5 14 7 NO 1006,9 14 0 0,0
17.05.2019 09:00:00 10,7 7,8 10,5 13,0 11,3 5 3 9 5 N 1007,5 10 0 0,0
17.05.2019 08:00:00 9,7 8,0 8,6 13,1 11,3 5 3 10 5 NO 1007,7 9 0 0,0
17.05.2019 07:00:00 8,5 7,1 7,9 13,3 11,3 4 2 7 4 NNW 1008,0 8 0 0,0
17.05.2019 06:00:00 8,0 6,8 6,5 13,6 11,3 3 1 6 3 NW 1008,1 8 0 0,0
17.05.2019 05:00:00 7,5 6,1 3,7 13,8 11,3 0 0 9 5 N 1008,6 9 0 0,0
17.05.2019 04:00:00 8,1 6,4 5,0 14,1 11,3 7 4 10 5 NO 1008,8 10 0 0,0
17.05.2019 03:00:00 8,6 6,2 7,1 14,4 11,3 7 4 16 9 NO 1009,5 14 0 0,0
17.05.2019 02:00:00 9,1 6,2 7,3 14,7 11,3 11 6 14 8 NO 1010,4 20 0 0,0
17.05.2019 01:00:00 9,4 5,6 7,9 15,0 11,2 9 5 15 8 NNO 1011,4 20 0 0,0
17.05.2019 00:00:00 10,3 5,3 8,9 15,2 11,2 12 6 22 12 NNO 1012,0 20 0 0,0
16.05.2019 23:00:00 11,6 5,2 10,6 15,5 11,3 14 8 24 13 NNO 1012,5 20 0 0,0
16.05.2019 22:00:00 12,2 4,7 11,0 15,7 11,2 16 9 29 16 N 1012,7 20 6 0,0
16.05.2019 21:00:00 13,8 4,6 13,0 15,8 11,2 18 10 32 17 NNO 1012,6 20 11 0,0
16.05.2019 20:00:00 15,2 4,3 15,7 15,7 11,2 21 12 38 20 NNO 1012,8 20 52 0,0
16.05.2019 19:00:00 17,1 3,7 19,4 15,5 11,2 21 11 36 19 NNO 1012,8 20 58 0,0

tt = temperatuur
td = dauwpunt
tt 5cm = temperatuur 5cm
tt -20cm = temperatuur -20cm
tt -100cm = temperatuur -100cm
ff = windsnelheid
fx = windstoten
dd = windrichting
ppp = luchtdruk
vv = zicht
sd = Zonneschijnduur
rr = neerslag

Weerstations in de omgeving